owner,sensor,date,latitude,longitude,vertical_datum,wind_speed,wind_to_direction,wind_speed_of_gust,qcFlag 
DISL,ioos:station:DISL:DISL:1,2009-10-10T00:00:00Z,30.2513,-88.0778,9.68,2.76,200.2,-9999.0,'1111122,1111122,1111122' 
DISL,ioos:station:DISL:DISL:1,2009-10-10T00:30:00Z,30.2513,-88.0778,9.68,2.55,186.2,-9999.0,'1111122,1111122,1111122' 
DISL,ioos:station:DISL:DISL:1,2009-10-10T01:00:00Z,30.2513,-88.0778,9.68,3.46,187.8,-9999.0,'1111122,1111122,1111122' 
DISL,ioos:station:DISL:DISL:1,2009-10-10T01:30:00Z,30.2513,-88.0778,9.68,2.74,196.5,-9999.0,'1111122,1111122,1111122' 
DISL,ioos:station:DISL:DISL:1,2009-10-10T02:00:00Z,30.2513,-88.0778,9.68,3.31,199.2,-9999.0,'1111122,1111122,1111122' 
DISL,ioos:station:DISL:DISL:1,2009-10-10T02:30:00Z,30.2513,-88.0778,9.68,11.64,344.0,-9999.0,'1111122,1111122,1111122' 
DISL,ioos:station:DISL:DISL:1,2009-10-10T03:00:00Z,30.2513,-88.0778,9.68,10.65,326.2,-9999.0,'1111122,1111122,1111122' 
DISL,ioos:station:DISL:DISL:1,2009-10-10T03:30:00Z,30.2513,-88.0778,9.68,8.23,346.1,-9999.0,'1111122,1111122,1111122' 
DISL,ioos:station:DISL:DISL:1,2009-10-10T04:00:00Z,30.2513,-88.0778,9.68,8.29,358.2,-9999.0,'1111122,1111122,1111122' 
DISL,ioos:station:DISL:DISL:1,2009-10-10T04:30:00Z,30.2513,-88.0778,9.68,7.91,14.64,-9999.0,'1111122,1111122,1111122' 
DISL,ioos:station:DISL:DISL:1,2009-10-10T05:00:00Z,30.2513,-88.0778,9.68,6.9,10.53,-9999.0,'1111122,1111122,1111122' 
DISL,ioos:station:DISL:DISL:1,2009-10-10T05:30:00Z,30.2513,-88.0778,9.68,5.2,353.7,-9999.0,'1111122,1111122,1111122' 
DISL,ioos:station:DISL:DISL:1,2009-10-10T06:00:00Z,30.2513,-88.0778,9.68,6.33,309.0,-9999.0,'1111122,1111122,1111122' 
DISL,ioos:station:DISL:DISL:1,2009-10-10T06:30:00Z,30.2513,-88.0778,9.68,6.41,331.4,-9999.0,'1111122,1111122,1111122' 
DISL,ioos:station:DISL:DISL:1,2009-10-10T07:00:00Z,30.2513,-88.0778,9.68,4.44,355.2,-9999.0,'1111122,1111122,1111122' 
DISL,ioos:station:DISL:DISL:1,2009-10-10T07:30:00Z,30.2513,-88.0778,9.68,4.38,1.687,-9999.0,'1111122,1111122,1111122' 
DISL,ioos:station:DISL:DISL:1,2009-10-10T08:00:00Z,30.2513,-88.0778,9.68,4.77,338.6,-9999.0,'1111122,1111122,1111122' 
DISL,ioos:station:DISL:DISL:1,2009-10-10T08:30:00Z,30.2513,-88.0778,9.68,6.32,318.4,-9999.0,'1111122,1111122,1111122' 
DISL,ioos:station:DISL:DISL:1,2009-10-10T09:00:00Z,30.2513,-88.0778,9.68,3.42,355.7,-9999.0,'1111122,1111122,1111122' 
DISL,ioos:station:DISL:DISL:1,2009-10-10T09:30:00Z,30.2513,-88.0778,9.68,4.37,0.053,-9999.0,'1111122,1111122,1111122' 
DISL,ioos:station:DISL:DISL:1,2009-10-10T10:00:00Z,30.2513,-88.0778,9.68,3.85,19.32,-9999.0,'1111122,1111122,1111122' 
DISL,ioos:station:DISL:DISL:1,2009-10-10T10:30:00Z,30.2513,-88.0778,9.68,3.34,25.22,-9999.0,'1111122,1111122,1111122' 
DISL,ioos:station:DISL:DISL:1,2009-10-10T11:00:00Z,30.2513,-88.0778,9.68,3.32,15.14,-9999.0,'1111122,1111122,1111122' 
DISL,ioos:station:DISL:DISL:1,2009-10-10T11:30:00Z,30.2513,-88.0778,9.68,2.99,2.699,-9999.0,'1111122,1111122,1111122' 
DISL,ioos:station:DISL:DISL:1,2009-10-10T12:00:00Z,30.2513,-88.0778,9.68,5.58,323.3,-9999.0,'1111122,1111122,1111122' 
DISL,ioos:station:DISL:DISL:1,2009-10-10T12:30:00Z,30.2513,-88.0778,9.68,5.11,328.9,-9999.0,'1111122,1111122,1111122' 
DISL,ioos:station:DISL:DISL:1,2009-10-10T13:00:00Z,30.2513,-88.0778,9.68,4.94,336.2,-9999.0,'1111122,1111122,1111122' 
DISL,ioos:station:DISL:DISL:1,2009-10-10T13:30:00Z,30.2513,-88.0778,9.68,4.36,355.8,-9999.0,'1111122,1111122,1111122' 
DISL,ioos:station:DISL:DISL:1,2009-10-10T14:00:00Z,30.2513,-88.0778,9.68,4.49,353.8,-9999.0,'1111122,1111122,1111122' 
DISL,ioos:station:DISL:DISL:1,2009-10-10T14:30:00Z,30.2513,-88.0778,9.68,3.96,7.06,-9999.0,'1111122,1111122,1111122' 
DISL,ioos:station:DISL:DISL:1,2009-10-10T15:00:00Z,30.2513,-88.0778,9.68,3.32,13.73,-9999.0,'1111122,1111122,1111122' 
DISL,ioos:station:DISL:DISL:1,2009-10-10T15:30:00Z,30.2513,-88.0778,9.68,3.5,17.36,-9999.0,'1111122,1111122,1111122' 
DISL,ioos:station:DISL:DISL:1,2009-10-10T16:00:00Z,30.2513,-88.0778,9.68,3.65,13.75,-9999.0,'1111122,1111122,1111122' 
DISL,ioos:station:DISL:DISL:1,2009-10-10T16:30:00Z,30.2513,-88.0778,9.68,2.53,22.89,-9999.0,'1111122,1111122,1111122' 
DISL,ioos:station:DISL:DISL:1,2009-10-10T17:00:00Z,30.2513,-88.0778,9.68,3.29,4.878,-9999.0,'1111122,1111122,1111122' 
DISL,ioos:station:DISL:DISL:1,2009-10-10T17:30:00Z,30.2513,-88.0778,9.68,2.93,38.09,-9999.0,'1111122,1111122,1111122' 
DISL,ioos:station:DISL:DISL:1,2009-10-10T18:00:00Z,30.2513,-88.0778,9.68,2.63,77.5,-9999.0,'1111122,1111122,1111122' 
DISL,ioos:station:DISL:DISL:1,2009-10-10T18:30:00Z,30.2513,-88.0778,9.68,2.27,18.99,-9999.0,'1111122,1111122,1111122' 
DISL,ioos:station:DISL:DISL:1,2009-10-10T19:00:00Z,30.2513,-88.0778,9.68,2.77,352.1,-9999.0,'1111122,1111122,1111122' 
DISL,ioos:station:DISL:DISL:1,2009-10-10T19:30:00Z,30.2513,-88.0778,9.68,2.86,13.85,-9999.0,'1111122,1111122,1111122' 
DISL,ioos:station:DISL:DISL:1,2009-10-10T20:00:00Z,30.2513,-88.0778,9.68,2.21,24.87,-9999.0,'1111122,1111122,1111122' 
DISL,ioos:station:DISL:DISL:1,2009-10-10T20:30:00Z,30.2513,-88.0778,9.68,2.44,2.992,-9999.0,'1111122,1111122,1111122' 
DISL,ioos:station:DISL:DISL:1,2009-10-10T21:00:00Z,30.2513,-88.0778,9.68,2.94,12.96,-9999.0,'1111122,1111122,1111122' 
DISL,ioos:station:DISL:DISL:1,2009-10-10T21:30:00Z,30.2513,-88.0778,9.68,3.31,13.13,-9999.0,'1111122,1111122,1111122' 
DISL,ioos:station:DISL:DISL:1,2009-10-10T22:00:00Z,30.2513,-88.0778,9.68,4.92,348.2,-9999.0,'1111122,1111122,1111122' 
DISL,ioos:station:DISL:DISL:1,2009-10-10T22:30:00Z,30.2513,-88.0778,9.68,8.07,352.2,-9999.0,'1111122,1111122,1111122' 
DISL,ioos:station:DISL:DISL:1,2009-10-10T23:00:00Z,30.2513,-88.0778,9.68,8.15,352.9,-9999.0,'1111122,1111122,1111122' 
DISL,ioos:station:DISL:DISL:1,2009-10-10T23:30:00Z,30.2513,-88.0778,9.68,8.01,342.6,-9999.0,'1111122,1111122,1111122' 
DISL,ioos:station:DISL:DISL:1,2009-10-11T00:00:00Z,30.2513,-88.0778,9.68,8.31,353.0,-9999.0,'1111122,1111122,1111122' 
DISL,ioos:station:DISL:DISL:1,2009-10-11T00:30:00Z,30.2513,-88.0778,9.68,8.96,2.541,-9999.0,'1111122,1111122,1111122' 
DISL,ioos:station:DISL:DISL:1,2009-10-11T01:00:00Z,30.2513,-88.0778,9.68,9.36,11.16,-9999.0,'1111122,1111122,1111122' 
DISL,ioos:station:DISL:DISL:1,2009-10-11T01:30:00Z,30.2513,-88.0778,9.68,8.84,9.9,-9999.0,'1111122,1111122,1111122' 
DISL,ioos:station:DISL:DISL:1,2009-10-11T02:00:00Z,30.2513,-88.0778,9.68,8.68,10.2,-9999.0,'1111122,1111122,1111122' 
DISL,ioos:station:DISL:DISL:1,2009-10-11T02:30:00Z,30.2513,-88.0778,9.68,8.26,19.73,-9999.0,'1111122,1111122,1111122' 
DISL,ioos:station:DISL:DISL:1,2009-10-11T03:00:00Z,30.2513,-88.0778,9.68,7.36,24.11,-9999.0,'1111122,1111122,1111122' 
DISL,ioos:station:DISL:DISL:1,2009-10-11T03:30:00Z,30.2513,-88.0778,9.68,7.62,20.2,-9999.0,'1111122,1111122,1111122' 
DISL,ioos:station:DISL:DISL:1,2009-10-11T04:00:00Z,30.2513,-88.0778,9.68,6.83,25.68,-9999.0,'1111122,1111122,1111122' 
DISL,ioos:station:DISL:DISL:1,2009-10-11T04:30:00Z,30.2513,-88.0778,9.68,6.95,29.69,-9999.0,'1111122,1111122,1111122' 
DISL,ioos:station:DISL:DISL:1,2009-10-11T05:00:00Z,30.2513,-88.0778,9.68,7.06,19.89,-9999.0,'1111122,1111122,1111122' 
DISL,ioos:station:DISL:DISL:1,2009-10-11T05:30:00Z,30.2513,-88.0778,9.68,6.64,30.82,-9999.0,'1111122,1111122,1111122' 
DISL,ioos:station:DISL:DISL:1,2009-10-11T06:00:00Z,30.2513,-88.0778,9.68,6.17,30.92,-9999.0,'1111122,1111122,1111122' 
DISL,ioos:station:DISL:DISL:1,2009-10-11T06:30:00Z,30.2513,-88.0778,9.68,6.3,31.63,-9999.0,'1111122,1111122,1111122' 
DISL,ioos:station:DISL:DISL:1,2009-10-11T07:00:00Z,30.2513,-88.0778,9.68,5.98,38.72,-9999.0,'1111122,1111122,1111122' 
DISL,ioos:station:DISL:DISL:1,2009-10-11T07:30:00Z,30.2513,-88.0778,9.68,5.9,39.85,-9999.0,'1111122,1111122,1111122' 
DISL,ioos:station:DISL:DISL:1,2009-10-11T08:00:00Z,30.2513,-88.0778,9.68,5.93,35.73,-9999.0,'1111122,1111122,1111122' 
DISL,ioos:station:DISL:DISL:1,2009-10-11T08:30:00Z,30.2513,-88.0778,9.68,6.01,22.37,-9999.0,'1111122,1111122,1111122' 
DISL,ioos:station:DISL:DISL:1,2009-10-11T09:00:00Z,30.2513,-88.0778,9.68,7.42,22.99,-9999.0,'1111122,1111122,1111122' 
DISL,ioos:station:DISL:DISL:1,2009-10-11T09:30:00Z,30.2513,-88.0778,9.68,7.71,22.13,-9999.0,'1111122,1111122,1111122' 
DISL,ioos:station:DISL:DISL:1,2009-10-11T10:00:00Z,30.2513,-88.0778,9.68,7.54,29.16,-9999.0,'1111122,1111122,1111122' 
DISL,ioos:station:DISL:DISL:1,2009-10-11T10:30:00Z,30.2513,-88.0778,9.68,7.06,31.65,-9999.0,'1111122,1111122,1111122' 
DISL,ioos:station:DISL:DISL:1,2009-10-11T11:00:00Z,30.2513,-88.0778,9.68,7.03,33.68,-9999.0,'1111122,1111122,1111122' 
DISL,ioos:station:DISL:DISL:1,2009-10-11T11:30:00Z,30.2513,-88.0778,9.68,7.26,31.71,-9999.0,'1111122,1111122,1111122' 
DISL,ioos:station:DISL:DISL:1,2009-10-11T12:00:00Z,30.2513,-88.0778,9.68,7.48,40.19,-9999.0,'1111122,1111122,1111122' 
DISL,ioos:station:DISL:DISL:1,2009-10-11T12:30:00Z,30.2513,-88.0778,9.68,7.09,41.44,-9999.0,'1111122,1111122,1111122' 
DISL,ioos:station:DISL:DISL:1,2009-10-11T13:00:00Z,30.2513,-88.0778,9.68,6.67,39.21,-9999.0,'1111122,1111122,1111122' 
DISL,ioos:station:DISL:DISL:1,2009-10-11T13:30:00Z,30.2513,-88.0778,9.68,6.34,40.67,-9999.0,'1111122,1111122,1111122' 
DISL,ioos:station:DISL:DISL:1,2009-10-11T14:00:00Z,30.2513,-88.0778,9.68,6.06,36.42,-9999.0,'1111122,1111122,1111122' 
DISL,ioos:station:DISL:DISL:1,2009-10-11T14:30:00Z,30.2513,-88.0778,9.68,6.33,30.84,-9999.0,'1111122,1111122,1111122' 
DISL,ioos:station:DISL:DISL:1,2009-10-11T15:00:00Z,30.2513,-88.0778,9.68,5.6,31.44,-9999.0,'1111122,1111122,1111122' 
DISL,ioos:station:DISL:DISL:1,2009-10-11T15:30:00Z,30.2513,-88.0778,9.68,4.47,32.57,-9999.0,'1111122,1111122,1111122' 
DISL,ioos:station:DISL:DISL:1,2009-10-11T16:00:00Z,30.2513,-88.0778,9.68,3.44,34.39,-9999.0,'1111122,1111122,1111122' 
DISL,ioos:station:DISL:DISL:1,2009-10-11T16:30:00Z,30.2513,-88.0778,9.68,3.25,68.11,-9999.0,'1111122,1111122,1111122' 
DISL,ioos:station:DISL:DISL:1,2009-10-11T17:00:00Z,30.2513,-88.0778,9.68,2.34,53.85,-9999.0,'1111122,1111122,1111122' 
DISL,ioos:station:DISL:DISL:1,2009-10-11T17:30:00Z,30.2513,-88.0778,9.68,2.84,24.38,-9999.0,'1111122,1111122,1111122' 
DISL,ioos:station:DISL:DISL:1,2009-10-11T18:00:00Z,30.2513,-88.0778,9.68,2.59,35.22,-9999.0,'1111122,1111122,1111122' 
DISL,ioos:station:DISL:DISL:1,2009-10-11T18:30:00Z,30.2513,-88.0778,9.68,1.87,65.97,-9999.0,'1111122,1111122,1111122' 
DISL,ioos:station:DISL:DISL:1,2009-10-11T19:00:00Z,30.2513,-88.0778,9.68,2.34,20.43,-9999.0,'1111122,1111122,1111122' 
DISL,ioos:station:DISL:DISL:1,2009-10-11T19:30:00Z,30.2513,-88.0778,9.68,3.02,6.785,-9999.0,'1111122,1111122,1111122' 
DISL,ioos:station:DISL:DISL:1,2009-10-11T20:00:00Z,30.2513,-88.0778,9.68,3.45,8.99,-9999.0,'1111122,1111122,1111122' 
DISL,ioos:station:DISL:DISL:1,2009-10-11T20:30:00Z,30.2513,-88.0778,9.68,2.39,41.09,-9999.0,'1111122,1111122,1111122' 
DISL,ioos:station:DISL:DISL:1,2009-10-11T21:00:00Z,30.2513,-88.0778,9.68,2.93,66.41,-9999.0,'1111122,1111122,1111122' 
DISL,ioos:station:DISL:DISL:1,2009-10-11T21:30:00Z,30.2513,-88.0778,9.68,2.62,59.33,-9999.0,'1111122,1111122,1111122' 
DISL,ioos:station:DISL:DISL:1,2009-10-11T22:00:00Z,30.2513,-88.0778,9.68,1.74,49.77,-9999.0,'1111122,1111122,1111122' 
DISL,ioos:station:DISL:DISL:1,2009-10-11T22:30:00Z,30.2513,-88.0778,9.68,2.1,47.81,-9999.0,'1111122,1111122,1111122' 
DISL,ioos:station:DISL:DISL:1,2009-10-11T23:00:00Z,30.2513,-88.0778,9.68,1.85,25.76,-9999.0,'1111122,1111122,1111122' 
DISL,ioos:station:DISL:DISL:1,2009-10-11T23:30:00Z,30.2513,-88.0778,9.68,2.54,48.7,-9999.0,'1111122,1111122,1111122' 
DISL,ioos:station:DISL:DISL:1,2009-10-12T00:00:00Z,30.2513,-88.0778,9.68,2.96,32.42,-9999.0,'1111122,1111122,1111122' 
DISL,ioos:station:DISL:DISL:1,2009-10-12T00:30:00Z,30.2513,-88.0778,9.68,2.6,32.06,-9999.0,'1111122,1111122,1111122' 
DISL,ioos:station:DISL:DISL:1,2009-10-12T01:00:00Z,30.2513,-88.0778,9.68,3.2,20.36,-9999.0,'1111122,1111122,1111122' 
DISL,ioos:station:DISL:DISL:1,2009-10-12T01:30:00Z,30.2513,-88.0778,9.68,3.81,22.69,-9999.0,'1111122,1111122,1111122' 
DISL,ioos:station:DISL:DISL:1,2009-10-12T02:00:00Z,30.2513,-88.0778,9.68,4.23,25.94,-9999.0,'1111122,1111122,1111122' 
DISL,ioos:station:DISL:DISL:1,2009-10-12T02:30:00Z,30.2513,-88.0778,9.68,2.17,16.48,-9999.0,'1111122,1111122,1111122' 
DISL,ioos:station:DISL:DISL:1,2009-10-12T03:00:00Z,30.2513,-88.0778,9.68,4.01,88.9,-9999.0,'1111122,1111122,1111122' 
DISL,ioos:station:DISL:DISL:1,2009-10-12T03:30:00Z,30.2513,-88.0778,9.68,3.59,88.3,-9999.0,'1111122,1111122,1111122' 
DISL,ioos:station:DISL:DISL:1,2009-10-12T04:00:00Z,30.2513,-88.0778,9.68,3.76,67.74,-9999.0,'1111122,1111122,1111122' 
DISL,ioos:station:DISL:DISL:1,2009-10-12T04:30:00Z,30.2513,-88.0778,9.68,3.71,69.55,-9999.0,'1111122,1111122,1111122' 
DISL,ioos:station:DISL:DISL:1,2009-10-12T05:00:00Z,30.2513,-88.0778,9.68,3.27,51.11,-9999.0,'1111122,1111122,1111122' 
DISL,ioos:station:DISL:DISL:1,2009-10-12T05:30:00Z,30.2513,-88.0778,9.68,3.48,51.66,-9999.0,'1111122,1111122,1111122' 
DISL,ioos:station:DISL:DISL:1,2009-10-12T06:00:00Z,30.2513,-88.0778,9.68,4.05,43.87,-9999.0,'1111122,1111122,1111122' 
DISL,ioos:station:DISL:DISL:1,2009-10-12T06:30:00Z,30.2513,-88.0778,9.68,3.24,58.34,-9999.0,'1111122,1111122,1111122' 
DISL,ioos:station:DISL:DISL:1,2009-10-12T07:00:00Z,30.2513,-88.0778,9.68,3.13,77.4,-9999.0,'1111122,1111122,1111122' 
DISL,ioos:station:DISL:DISL:1,2009-10-12T07:30:00Z,30.2513,-88.0778,9.68,2.84,92.5,-9999.0,'1111122,1111122,1111122' 
DISL,ioos:station:DISL:DISL:1,2009-10-12T08:00:00Z,30.2513,-88.0778,9.68,2.64,132.3,-9999.0,'1111122,1111122,1111122' 
DISL,ioos:station:DISL:DISL:1,2009-10-12T08:30:00Z,30.2513,-88.0778,9.68,1.96,167.5,-9999.0,'1111122,1111122,1111122' 
DISL,ioos:station:DISL:DISL:1,2009-10-12T09:00:00Z,30.2513,-88.0778,9.68,1.25,201.2,-9999.0,'1111122,1111122,1111122' 
DISL,ioos:station:DISL:DISL:1,2009-10-12T09:30:00Z,30.2513,-88.0778,9.68,0.68,358.5,-9999.0,'1111122,1111122,1111122' 
DISL,ioos:station:DISL:DISL:1,2009-10-12T10:00:00Z,30.2513,-88.0778,9.68,0.27,44.68,-9999.0,'1111122,1111122,1111122' 
DISL,ioos:station:DISL:DISL:1,2009-10-12T10:30:00Z,30.2513,-88.0778,9.68,0.91,197.7,-9999.0,'1111122,1111122,1111122' 
DISL,ioos:station:DISL:DISL:1,2009-10-12T11:00:00Z,30.2513,-88.0778,9.68,1.06,191.3,-9999.0,'1111122,1111122,1111122' 
DISL,ioos:station:DISL:DISL:1,2009-10-12T11:30:00Z,30.2513,-88.0778,9.68,1.64,182.1,-9999.0,'1111122,1111122,1111122' 
DISL,ioos:station:DISL:DISL:1,2009-10-12T12:00:00Z,30.2513,-88.0778,9.68,2.26,175.6,-9999.0,'1111122,1111122,1111122' 
DISL,ioos:station:DISL:DISL:1,2009-10-12T12:30:00Z,30.2513,-88.0778,9.68,2.96,174.2,-9999.0,'1111122,1111122,1111122' 
DISL,ioos:station:DISL:DISL:1,2009-10-12T13:00:00Z,30.2513,-88.0778,9.68,1.05,174.4,-9999.0,'1111122,1111122,1111122' 
DISL,ioos:station:DISL:DISL:1,2009-10-12T13:30:00Z,30.2513,-88.0778,9.68,1.31,212.7,-9999.0,'1111122,1111122,1111122' 
DISL,ioos:station:DISL:DISL:1,2009-10-12T14:00:00Z,30.2513,-88.0778,9.68,1.85,178.0,-9999.0,'1111122,1111122,1111122' 
DISL,ioos:station:DISL:DISL:1,2009-10-12T14:30:00Z,30.2513,-88.0778,9.68,2.21,167.2,-9999.0,'1111122,1111122,1111122' 
DISL,ioos:station:DISL:DISL:1,2009-10-12T15:00:00Z,30.2513,-88.0778,9.68,2.21,169.8,-9999.0,'1111122,1111122,1111122' 
DISL,ioos:station:DISL:DISL:1,2009-10-12T15:30:00Z,30.2513,-88.0778,9.68,2.37,170.8,-9999.0,'1111122,1111122,1111122' 
DISL,ioos:station:DISL:DISL:1,2009-10-12T16:00:00Z,30.2513,-88.0778,9.68,2.01,180.9,-9999.0,'1111122,1111122,1111122' 
DISL,ioos:station:DISL:DISL:1,2009-10-12T16:30:00Z,30.2513,-88.0778,9.68,3.12,170.4,-9999.0,'1111122,1111122,1111122' 
DISL,ioos:station:DISL:DISL:1,2009-10-12T17:00:00Z,30.2513,-88.0778,9.68,2.54,168.8,-9999.0,'1111122,1111122,1111122' 
DISL,ioos:station:DISL:DISL:1,2009-10-12T17:30:00Z,30.2513,-88.0778,9.68,3.12,169.4,-9999.0,'1111122,1111122,1111122' 
DISL,ioos:station:DISL:DISL:1,2009-10-12T18:00:00Z,30.2513,-88.0778,9.68,3.15,170.6,-9999.0,'1111122,1111122,1111122' 
DISL,ioos:station:DISL:DISL:1,2009-10-12T18:30:00Z,30.2513,-88.0778,9.68,2.41,182.9,-9999.0,'1111122,1111122,1111122' 
DISL,ioos:station:DISL:DISL:1,2009-10-12T19:00:00Z,30.2513,-88.0778,9.68,2.71,167.4,-9999.0,'1111122,1111122,1111122' 
DISL,ioos:station:DISL:DISL:1,2009-10-12T19:30:00Z,30.2513,-88.0778,9.68,2.5,207.7,-9999.0,'1111122,1111122,1111122' 
DISL,ioos:station:DISL:DISL:1,2009-10-12T20:00:00Z,30.2513,-88.0778,9.68,2.1,191.3,-9999.0,'1111122,1111122,1111122' 
DISL,ioos:station:DISL:DISL:1,2009-10-12T20:30:00Z,30.2513,-88.0778,9.68,2.06,203.4,-9999.0,'1111122,1111122,1111122' 
DISL,ioos:station:DISL:DISL:1,2009-10-12T21:00:00Z,30.2513,-88.0778,9.68,1.52,211.4,-9999.0,'1111122,1111122,1111122' 
DISL,ioos:station:DISL:DISL:1,2009-10-12T21:30:00Z,30.2513,-88.0778,9.68,1.87,220.5,-9999.0,'1111122,1111122,1111122' 
DISL,ioos:station:DISL:DISL:1,2009-10-12T22:00:00Z,30.2513,-88.0778,9.68,1.71,199.4,-9999.0,'1111122,1111122,1111122' 
DISL,ioos:station:DISL:DISL:1,2009-10-12T22:30:00Z,30.2513,-88.0778,9.68,1.26,261.1,-9999.0,'1111122,1111122,1111122' 
DISL,ioos:station:DISL:DISL:1,2009-10-12T23:00:00Z,30.2513,-88.0778,9.68,3.28,313.1,-9999.0,'1111122,1111122,1111122' 
DISL,ioos:station:DISL:DISL:1,2009-10-12T23:30:00Z,30.2513,-88.0778,9.68,11.05,357.3,-9999.0,'1111122,1111122,1111122' 
DISL,ioos:station:DISL:DISL:1,2009-10-13T00:00:00Z,30.2513,-88.0778,9.68,10.17,2.364,-9999.0,'1111122,1111122,1111122' 
DISL,ioos:station:DISL:DISL:1,2009-10-13T00:30:00Z,30.2513,-88.0778,9.68,8.22,18.93,-9999.0,'1111122,1111122,1111122' 
DISL,ioos:station:DISL:DISL:1,2009-10-13T01:00:00Z,30.2513,-88.0778,9.68,7.76,49.45,-9999.0,'1111122,1111122,1111122' 
DISL,ioos:station:DISL:DISL:1,2009-10-13T01:30:00Z,30.2513,-88.0778,9.68,7.46,66.19,-9999.0,'1111122,1111122,1111122' 
DISL,ioos:station:DISL:DISL:1,2009-10-13T02:00:00Z,30.2513,-88.0778,9.68,7.53,84.5,-9999.0,'1111122,1111122,1111122' 
DISL,ioos:station:DISL:DISL:1,2009-10-13T02:30:00Z,30.2513,-88.0778,9.68,5.67,84.6,-9999.0,'1111122,1111122,1111122' 
DISL,ioos:station:DISL:DISL:1,2009-10-13T03:00:00Z,30.2513,-88.0778,9.68,6.34,99.6,-9999.0,'1111122,1111122,1111122' 
DISL,ioos:station:DISL:DISL:1,2009-10-13T03:30:00Z,30.2513,-88.0778,9.68,5.06,93.5,-9999.0,'1111122,1111122,1111122' 
DISL,ioos:station:DISL:DISL:1,2009-10-13T04:00:00Z,30.2513,-88.0778,9.68,4.65,97.1,-9999.0,'1111122,1111122,1111122' 
DISL,ioos:station:DISL:DISL:1,2009-10-13T04:30:00Z,30.2513,-88.0778,9.68,3.81,99.1,-9999.0,'1111122,1111122,1111122' 
DISL,ioos:station:DISL:DISL:1,2009-10-13T05:00:00Z,30.2513,-88.0778,9.68,4.59,129.4,-9999.0,'1111122,1111122,1111122' 
DISL,ioos:station:DISL:DISL:1,2009-10-13T05:30:00Z,30.2513,-88.0778,9.68,3.39,136.2,-9999.0,'1111122,1111122,1111122' 
DISL,ioos:station:DISL:DISL:1,2009-10-13T06:00:00Z,30.2513,-88.0778,9.68,2.34,138.3,-9999.0,'1111122,1111122,1111122' 
DISL,ioos:station:DISL:DISL:1,2009-10-13T06:30:00Z,30.2513,-88.0778,9.68,2.18,147.5,-9999.0,'1111122,1111122,1111122' 
DISL,ioos:station:DISL:DISL:1,2009-10-13T07:00:00Z,30.2513,-88.0778,9.68,2.13,151.6,-9999.0,'1111122,1111122,1111122' 
DISL,ioos:station:DISL:DISL:1,2009-10-13T07:30:00Z,30.2513,-88.0778,9.68,1.72,149.9,-9999.0,'1111122,1111122,1111122' 
DISL,ioos:station:DISL:DISL:1,2009-10-13T08:00:00Z,30.2513,-88.0778,9.68,1.55,147.9,-9999.0,'1111122,1111122,1111122' 
DISL,ioos:station:DISL:DISL:1,2009-10-13T08:30:00Z,30.2513,-88.0778,9.68,1.24,140.6,-9999.0,'1111122,1111122,1111122' 
DISL,ioos:station:DISL:DISL:1,2009-10-13T09:00:00Z,30.2513,-88.0778,9.68,0.68,115.8,-9999.0,'1111122,1111122,1111122' 
DISL,ioos:station:DISL:DISL:1,2009-10-13T09:30:00Z,30.2513,-88.0778,9.68,1.71,9.08,-9999.0,'1111122,1111122,1111122' 
DISL,ioos:station:DISL:DISL:1,2009-10-13T10:00:00Z,30.2513,-88.0778,9.68,6.05,6.982,-9999.0,'1111122,1111122,1111122' 
DISL,ioos:station:DISL:DISL:1,2009-10-13T10:30:00Z,30.2513,-88.0778,9.68,5.8,14.07,-9999.0,'1111122,1111122,1111122' 
DISL,ioos:station:DISL:DISL:1,2009-10-13T11:00:00Z,30.2513,-88.0778,9.68,4.69,33.81,-9999.0,'1111122,1111122,1111122' 
DISL,ioos:station:DISL:DISL:1,2009-10-13T11:30:00Z,30.2513,-88.0778,9.68,4.05,39.79,-9999.0,'1111122,1111122,1111122' 
DISL,ioos:station:DISL:DISL:1,2009-10-13T12:00:00Z,30.2513,-88.0778,9.68,3.72,24.69,-9999.0,'1111122,1111122,1111122' 
DISL,ioos:station:DISL:DISL:1,2009-10-13T12:30:00Z,30.2513,-88.0778,9.68,4.15,37.4,-9999.0,'1111122,1111122,1111122' 
DISL,ioos:station:DISL:DISL:1,2009-10-13T13:00:00Z,30.2513,-88.0778,9.68,4.3,29.65,-9999.0,'1111122,1111122,1111122' 
DISL,ioos:station:DISL:DISL:1,2009-10-13T13:30:00Z,30.2513,-88.0778,9.68,4.29,33.82,-9999.0,'1111122,1111122,1111122' 
DISL,ioos:station:DISL:DISL:1,2009-10-13T14:00:00Z,30.2513,-88.0778,9.68,4.17,28.52,-9999.0,'1111122,1111122,1111122' 
DISL,ioos:station:DISL:DISL:1,2009-10-13T14:30:00Z,30.2513,-88.0778,9.68,3.49,42.09,-9999.0,'1111122,1111122,1111122' 
DISL,ioos:station:DISL:DISL:1,2009-10-13T15:00:00Z,30.2513,-88.0778,9.68,3.71,48.01,-9999.0,'1111122,1111122,1111122' 
DISL,ioos:station:DISL:DISL:1,2009-10-13T15:30:00Z,30.2513,-88.0778,9.68,3.67,58.86,-9999.0,'1111122,1111122,1111122' 
DISL,ioos:station:DISL:DISL:1,2009-10-13T16:00:00Z,30.2513,-88.0778,9.68,3.9,70.4,-9999.0,'1111122,1111122,1111122' 
DISL,ioos:station:DISL:DISL:1,2009-10-13T16:30:00Z,30.2513,-88.0778,9.68,4.19,76.0,-9999.0,'1111122,1111122,1111122' 
DISL,ioos:station:DISL:DISL:1,2009-10-13T17:00:00Z,30.2513,-88.0778,9.68,3.4,65.0,-9999.0,'1111122,1111122,1111122' 
DISL,ioos:station:DISL:DISL:1,2009-10-13T17:30:00Z,30.2513,-88.0778,9.68,3.74,66.47,-9999.0,'1111122,1111122,1111122' 
DISL,ioos:station:DISL:DISL:1,2009-10-13T18:00:00Z,30.2513,-88.0778,9.68,3.87,65.02,-9999.0,'1111122,1111122,1111122' 
DISL,ioos:station:DISL:DISL:1,2009-10-13T18:30:00Z,30.2513,-88.0778,9.68,3.57,68.93,-9999.0,'1111122,1111122,1111122' 
DISL,ioos:station:DISL:DISL:1,2009-10-13T19:00:00Z,30.2513,-88.0778,9.68,4.34,69.32,-9999.0,'1111122,1111122,1111122' 
DISL,ioos:station:DISL:DISL:1,2009-10-13T19:30:00Z,30.2513,-88.0778,9.68,4.04,64.12,-9999.0,'1111122,1111122,1111122' 
DISL,ioos:station:DISL:DISL:1,2009-10-13T20:00:00Z,30.2513,-88.0778,9.68,3.06,68.94,-9999.0,'1111122,1111122,1111122' 
DISL,ioos:station:DISL:DISL:1,2009-10-13T20:30:00Z,30.2513,-88.0778,9.68,3.14,67.66,-9999.0,'1111122,1111122,1111122' 
DISL,ioos:station:DISL:DISL:1,2009-10-13T21:00:00Z,30.2513,-88.0778,9.68,3.32,87.3,-9999.0,'1111122,1111122,1111122' 
DISL,ioos:station:DISL:DISL:1,2009-10-13T21:30:00Z,30.2513,-88.0778,9.68,1.97,55.35,-9999.0,'1111122,1111122,1111122' 
DISL,ioos:station:DISL:DISL:1,2009-10-13T22:00:00Z,30.2513,-88.0778,9.68,4.84,101.8,-9999.0,'1111122,1111122,1111122' 
DISL,ioos:station:DISL:DISL:1,2009-10-13T22:30:00Z,30.2513,-88.0778,9.68,5.67,106.2,-9999.0,'1111122,1111122,1111122' 
DISL,ioos:station:DISL:DISL:1,2009-10-13T23:00:00Z,30.2513,-88.0778,9.68,5.3,98.9,-9999.0,'1111122,1111122,1111122' 
DISL,ioos:station:DISL:DISL:1,2009-10-13T23:30:00Z,30.2513,-88.0778,9.68,5.06,104.8,-9999.0,'1111122,1111122,1111122' 
DISL,ioos:station:DISL:DISL:1,2009-10-14T00:00:00Z,30.2513,-88.0778,9.68,5.72,105.1,-9999.0,'1111122,1111122,1111122' 
DISL,ioos:station:DISL:DISL:1,2009-10-14T00:30:00Z,30.2513,-88.0778,9.68,6.14,99.4,-9999.0,'1111122,1111122,1111122' 
DISL,ioos:station:DISL:DISL:1,2009-10-14T01:00:00Z,30.2513,-88.0778,9.68,5.94,102.4,-9999.0,'1111122,1111122,1111122' 
DISL,ioos:station:DISL:DISL:1,2009-10-14T01:30:00Z,30.2513,-88.0778,9.68,6.56,104.4,-9999.0,'1111122,1111122,1111122' 
DISL,ioos:station:DISL:DISL:1,2009-10-14T02:00:00Z,30.2513,-88.0778,9.68,6.82,104.1,-9999.0,'1111122,1111122,1111122' 
DISL,ioos:station:DISL:DISL:1,2009-10-14T02:30:00Z,30.2513,-88.0778,9.68,5.99,111.5,-9999.0,'1111122,1111122,1111122' 
DISL,ioos:station:DISL:DISL:1,2009-10-14T03:00:00Z,30.2513,-88.0778,9.68,5.1,123.4,-9999.0,'1111122,1111122,1111122' 
DISL,ioos:station:DISL:DISL:1,2009-10-14T03:30:00Z,30.2513,-88.0778,9.68,5.37,118.6,-9999.0,'1111122,1111122,1111122' 
DISL,ioos:station:DISL:DISL:1,2009-10-14T04:00:00Z,30.2513,-88.0778,9.68,4.35,128.8,-9999.0,'1111122,1111122,1111122' 